GW5306 Weather Reports


time (UTC)temp
F
wind
direction
speed
knots
gust
knots
rain 1hr
in
rain 24hr
in
rain mn
in
humidity
%
barometer
mb
20260507233446 76 315 0.0 0.0 0.00 0.00 0.19 90 1009.0
20260507232947 76 315 0.0 0.0 0.00 0.00 0.19 90 1009.0
20260507232446 76 315 0.0 0.0 0.00 0.00 0.19 90 1009.0
20260507231947 75 315 0.0 0.0 0.00 0.00 0.19 90 1009.0
20260507231447 75 315 0.0 0.9 0.00 0.00 0.19 91 1009.0
20260507230946 75 315 0.9 0.9 0.00 0.00 0.19 91 1009.0
20260507230446 75 324 0.9 0.9 0.00 0.00 0.19 91 1009.0
20260507225946 75 322 1.7 1.7 0.00 0.00 0.19 90 1009.0
20260507225446 76 284 0.9 1.7 0.00 0.00 0.19 90 1009.0
20260507224946 76 258 0.0 0.0 0.00 0.00 0.19 90 1009.0
20260507224446 76 240 0.9 0.9 0.00 0.00 0.19 89 1009.0
20260507223946 76 234 0.0 0.9 0.00 0.00 0.19 90 1009.0
20260507223446 76 224 0.9 0.9 0.00 0.00 0.19 90 1009.0
20260507222946 76 248 1.7 1.7 0.00 0.00 0.19 90 1009.0
20260507222446 76 236 0.9 0.9 0.00 0.00 0.19 90 1009.0
20260507221947 76 235 0.9 0.9 0.00 0.00 0.19 90 1009.0
20260507221446 76 241 0.0 0.0 0.00 0.00 0.19 90 1009.0
20260507220946 76 263 0.0 0.9 0.00 0.00 0.19 90 1009.0
20260507220446 75 265 0.0 0.0 0.00 0.00 0.19 91 1009.0
20260507215947 75 267 0.0 0.9 0.00 0.00 0.19 91 1009.0
20260507215446 75 267 0.9 0.9 0.00 0.00 0.19 91 1009.0
20260507214946 75 267 0.9 1.7 0.00 0.00 0.19 91 1009.0
20260507214446 75 264 0.9 0.9 0.00 0.00 0.19 91 1009.0
20260507213946 75 299 0.9 1.7 0.00 0.00 0.19 90 1009.0
20260507213446 75 287 0.9 1.7 0.00 0.00 0.19 90 1009.0
20260507212947 75 234 0.9 0.9 0.00 0.00 0.19 90 1009.0
20260507212447 76 220 0.0 0.9 0.00 0.00 0.19 89 1009.0
20260507211946 75 220 0.0 0.9 0.00 0.00 0.19 89 1009.0
20260507211446 75 200 0.0 0.0 0.00 0.00 0.19 88 1009.0
20260507210947 75 200 0.0 0.0 0.00 0.00 0.19 88 1009.0
20260507210448 75 200 0.0 0.0 0.00 0.00 0.19 88 1009.0
20260507205946 76 165 0.0 0.0 0.00 0.00 0.19 89 1009.0
20260507205446 76 164 0.0 0.0 0.00 0.00 0.19 88 1009.0
20260507204947 76 164 0.0 0.0 0.00 0.00 0.19 88 1009.0
20260507204447 76 164 0.0 0.0 0.00 0.00 0.19 90 1009.0
20260507203946 76 189 1.7 1.7 0.00 0.00 0.19 90 1009.0
20260507203446 76 187 1.7 2.6 0.00 0.00 0.19 89 1009.0
20260507202946 76 168 1.7 2.6 0.05 0.00 0.19 89 1009.0
20260507202446 76 158 2.6 3.5 0.05 0.00 0.19 89 1009.0
20260507201947 76 181 1.7 1.7 0.00 0.00 0.18 90 1009.0
20260507201446 75 184 2.6 2.6 0.00 0.00 0.18 90 1009.0
20260507200946 75 142 2.6 3.5 0.00 0.00 0.18 90 1009.0
20260507200447 75 162 2.6 2.6 0.00 0.00 0.18 90 1009.0
20260507195947 75 160 1.7 1.7 0.00 0.00 0.18 91 1009.0
20260507195446 75 152 0.9 0.9 0.00 0.00 0.18 91 1009.0
20260507194947 75 156 0.9 0.9 0.00 0.00 0.18 91 1009.0
20260507194446 75 153 0.9 0.9 0.00 0.00 0.18 91 1009.0
20260507193946 76 161 1.7 2.6 0.00 0.00 0.18 91 1009.0
20260507193447 76 225 0.0 0.9 0.00 0.00 0.18 91 1009.0
20260507192946 76 228 0.0 0.0 0.00 0.00 0.18 91 1009.0
20260507192446 75 253 0.9 0.9 0.00 0.00 0.18 91 1010.0
20260507191947 76 284 0.0 0.0 0.00 0.00 0.18 91 1010.0
20260507191446 75 177 0.9 1.7 0.00 0.00 0.18 91 1010.0
20260507190947 75 244 3.5 5.2 0.00 0.00 0.18 91 1010.0
20260507190446 76 251 2.6 3.5 0.00 0.00 0.18 91 1010.0
20260507185947 76 231 0.9 1.7 0.00 0.00 0.18 91 1010.0
20260507185447 76 232 1.7 2.6 0.00 0.00 0.18 90 1010.0
20260507184946 75 235 1.7 2.6 0.47 0.00 0.18 89 1010.0
20260507184448 76 263 4.3 6.1 1.02 0.00 0.18 89 1010.0
20260507183946 77 207 0.9 1.7 0.66 0.00 0.11 88 1010.0
20260507183446 78 152 1.7 2.6 0.07 0.00 0.01 86 1010.0
20260507182948 79 152 1.7 2.6 0.00 0.00 0.00 84 1010.0
20260507182447 79 147 6.1 7.0 0.00 0.00 0.00 81 1010.0
20260507181946 80 126 4.3 6.1 0.00 0.00 0.00 82 1010.0
20260507181447 80 119 3.5 5.2 0.00 0.00 0.00 83 1010.0
20260507180946 80 206 1.7 3.5 0.00 0.00 0.00 84 1010.0
20260507180447 80 131 7.0 7.8 0.00 0.00 0.00 84 1010.0
20260507175947 81 164 6.1 8.7 0.00 0.00 0.00 83 1010.0
20260507175447 81 185 3.5 5.2 0.00 0.00 0.00 82 1010.0
20260507174947 82 191 7.0 11.3 0.00 0.00 0.00 80 1010.0
20260507174447 83 184 4.3 6.1 0.00 0.00 0.00 78 1010.0
20260507173946 84 152 5.2 8.7 0.00 0.00 0.00 75 1009.0
20260507173446 84 130 5.2 7.0 0.00 0.00 0.00 74 1009.0
20260507172946 84 122 3.5 3.5 0.00 0.00 0.00 73 1010.0
20260507172446 85 170 2.6 3.5 0.00 0.00 0.00 74 1010.0
20260507171948 86 184 3.5 5.2 0.00 0.00 0.00 74 1010.0
20260507171447 86 155 5.2 7.0 0.00 0.00 0.00 74 1009.0
20260507170946 86 241 1.7 2.6 0.00 0.00 0.00 74 1009.0
20260507170447 85 192 2.6 3.5 0.00 0.00 0.00 75 1009.0
20260507165946 84 140 2.6 2.6 0.00 0.00 0.00 78 1009.0
20260507165447 85 127 1.7 1.7 0.00 0.00 0.00 76 1009.0
20260507164946 84 346 0.0 0.0 0.00 0.00 0.00 76 1008.0
20260507164447 84 345 0.0 0.0 0.00 0.00 0.00 77 1008.0
20260507163956 84 345 0.9 1.7 0.00 0.00 0.00 77 1008.0
20260507163446 85 346 1.7 1.7 0.00 0.00 0.00 77 1008.0
20260507162947 85 6 0.9 0.9 0.00 0.00 0.00 76 1008.0
20260507162447 85 10 1.7 2.6 0.00 0.00 0.00 74 1008.0
20260507161946 86 298 1.7 1.7 0.00 0.00 0.00 73 1008.0
20260507161446 85 296 0.0 0.9 0.00 0.00 0.00 73 1009.0
20260507160946 85 295 0.0 0.0 0.00 0.00 0.00 73 1008.0
20260507160446 85 295 0.9 0.9 0.00 0.00 0.00 74 1009.0
20260507155946 85 296 0.9 0.9 0.00 0.00 0.00 74 1008.0
20260507155447 85 295 0.0 0.0 0.00 0.00 0.00 73 1008.0
20260507154946 85 296 0.9 0.9 0.00 0.00 0.00 74 1008.0
20260507154447 85 295 0.0 0.9 0.00 0.00 0.00 74 1008.0
20260507153500 85 295 0.0 0.9 0.00 0.00 0.00 73 1008.0
20260507152946 85 297 0.9 0.9 0.00 0.00 0.00 73 1008.0
20260507152447 85 305 0.0 0.9 0.00 0.00 0.00 75 1008.0
20260507151948 85 305 0.9 0.9 0.00 0.00 0.00 75 1008.0
20260507151447 85 302 0.9 0.9 0.00 0.00 0.00 76 1007.0
20260507150946 85 302 0.0 0.0 0.00 0.00 0.00 77 1008.0
20260507150447 85 304 0.0 0.9 0.00 0.00 0.00 77 1008.0
20260507145946 85 303 0.0 0.9 0.00 0.00 0.00 77 1007.0
20260507145447 86 62 0.0 0.9 0.00 0.00 0.00 76 1007.0
20260507144946 86 62 0.0 0.9 0.00 0.00 0.00 76 1007.0
20260507144446 86 63 0.9 0.9 0.00 0.00 0.00 75 1007.0
20260507143947 86 62 0.0 0.0 0.00 0.00 0.00 73 1007.0
20260507143446 86 63 0.0 0.9 0.00 0.00 0.00 72 1007.0
20260507142946 86 68 0.9 0.9 0.00 0.00 0.00 74 1007.0
20260507142446 86 70 0.0 0.9 0.00 0.00 0.00 74 1007.0
20260507141947 86 71 0.9 0.9 0.00 0.00 0.00 74 1007.0
20260507141452 87 71 0.9 0.9 0.00 0.00 0.00 73 1007.0
20260507140946 87 72 0.9 0.9 0.00 0.00 0.00 72 1007.0
20260507140447 87 72 0.0 0.0 0.00 0.00 0.00 71 1006.0
20260507135946 88 72 0.0 0.0 0.00 0.00 0.00 69 1006.0
20260507135447 89 72 0.0 0.0 0.00 0.00 0.00 68 1006.0
20260507134947 89 72 0.0 0.0 0.00 0.00 0.00 67 1006.0
20260507134446 89 72 0.0 0.0 0.00 0.00 0.00 64 1006.0
20260507133946 89 71 0.0 0.0 0.00 0.00 0.00 64 1006.0
20260507133447 90 71 0.0 0.0 0.00 0.00 0.00 63 1005.0
20260507132947 90 63 0.9 0.9 0.00 0.00 0.00 63 1006.0
20260507132448 90 87 0.9 1.7 0.00 0.00 0.00 63 1006.0
20260507131948 90 98 1.7 1.7 0.00 0.00 0.00 64 1005.0
20260507131447 90 117 1.7 1.7 0.00 0.00 0.00 63 1005.0
20260507130947 90 119 2.6 2.6 0.00 0.00 0.00 63 1005.0
20260507130449 90 122 1.7 1.7 0.00 0.00 0.00 63 1005.0
20260507125947 89 135 1.7 2.6 0.00 0.00 0.00 63 1005.0
20260507125446 90 141 1.7 1.7 0.00 0.00 0.00 64 1005.0
20260507124947 90 110 1.7 1.7 0.00 0.00 0.00 64 1005.0
20260507124446 90 144 1.7 1.7 0.00 0.00 0.00 63 1005.0
20260507123948 90 89 2.6 3.5 0.00 0.00 0.00 62 1005.0
20260507123447 90 103 2.6 3.5 0.00 0.00 0.00 62 1006.0
20260507122948 91 112 0.9 1.7 0.00 0.00 0.00 63 1005.0
20260507122447 91 102 2.6 3.5 0.00 0.00 0.00 61 1005.0
20260507121947 91 110 2.6 2.6 0.00 0.00 0.00 61 1005.0
20260507121446 91 107 3.5 3.5 0.00 0.00 0.00 60 1005.0
20260507120946 92 95 2.6 3.5 0.00 0.00 0.00 59 1005.0
20260507120447 92 114 3.5 3.5 0.00 0.00 0.00 59 1005.0
20260507115946 92 127 3.5 5.2 0.00 0.00 0.00 60 1005.0
20260507115447 92 115 3.5 5.2 0.00 0.00 0.00 59 1005.0
20260507114947 93 147 3.5 3.5 0.00 0.00 0.00 59 1005.0
20260507114446 92 115 0.9 1.7 0.00 0.00 0.00 59 1005.0
20260507113946 93 124 2.6 2.6 0.00 0.00 0.00 58 1005.0
20260507113447 93 107 0.0 0.9 0.00 0.00 0.00 59 1005.0
20260507112946 93 147 1.7 2.6 0.00 0.00 0.00 58 1005.0
20260507112446 92 98 0.9 1.7 0.00 0.00 0.00 59 1005.0
20260507111948 92 107 2.6 3.5 0.00 0.00 0.00 59 1005.0
20260507111447 93 134 0.9 1.7 0.00 0.00 0.00 58 1005.0
20260507110948 93 74 1.7 2.6 0.00 0.00 0.00 57 1005.0
20260507110446 93 132 2.6 2.6 0.00 0.00 0.00 57 1005.0
20260507105946 93 41 1.7 3.5 0.00 0.00 0.00 57 1005.0
20260507105446 93 62 2.6 3.5 0.00 0.00 0.00 57 1005.0
20260507104949 93 91 0.9 0.9 0.00 0.00 0.00 57 1005.0
20260507104446 93 121 0.9 0.9 0.00 0.00 0.00 58 1005.0
20260507103946 93 122 1.7 1.7 0.00 0.00 0.00 58 1005.0
20260507103446 93 64 2.6 2.6 0.00 0.00 0.00 58 1005.0
20260507102946 93 190 0.0 0.0 0.00 0.00 0.00 57 1005.0
20260507102446 93 92 0.9 1.7 0.00 0.00 0.00 57 1005.0
20260507101946 93 119 0.0 0.9 0.00 0.00 0.00 57 1006.0
20260507100946 93 18 0.0 0.0 0.00 0.00 0.00 57 1006.0
20260507100446 93 13 1.7 2.6 0.00 0.00 0.00 56 1006.0
20260507095947 94 194 0.0 0.0 0.00 0.00 0.00 56 1006.0
20260507095446 92 142 0.9 0.9 0.00 0.00 0.00 59 1006.0
20260507094946 92 138 3.5 3.5 0.00 0.00 0.00 58 1006.0
20260507094446 93 159 1.7 2.6 0.00 0.00 0.00 58 1006.0
20260507093947 93 87 2.6 2.6 0.00 0.00 0.00 56 1006.0
20260507093447 93 135 2.6 2.6 0.00 0.00 0.00 58 1006.0
20260507092946 93 105 1.7 1.7 0.00 0.00 0.00 57 1006.0
20260507092446 93 154 1.7 1.7 0.00 0.00 0.00 55 1006.0
20260507091947 93 351 0.0 0.9 0.00 0.00 0.00 55 1006.0
20260507091447 93 47 0.9 0.9 0.00 0.00 0.00 55 1006.0
20260507090946 94 8 3.5 3.5 0.00 0.00 0.00 54 1006.0
20260507090446 95 3 0.0 0.0 0.00 0.00 0.00 53 1006.0
20260507085946 96 257 0.9 0.9 0.00 0.00 0.00 53 1006.0
20260507085446 94 311 4.3 5.2 0.00 0.00 0.00 54 1006.0
20260507084946 94 20 1.7 2.6 0.00 0.00 0.00 54 1006.0
20260507084447 93 42 2.6 2.6 0.00 0.00 0.00 56 1006.0
20260507083948 94 18 1.7 1.7 0.00 0.00 0.00 56 1006.0
20260507083447 93 40 3.5 3.5 0.00 0.00 0.00 56 1006.0
20260507082947 93 29 0.9 1.7 0.00 0.00 0.00 56 1007.0
20260507082446 94 344 3.5 3.5 0.00 0.00 0.00 55 1007.0
20260507081946 94 307 3.5 3.5 0.00 0.00 0.00 56 1007.0
20260507081446 93 288 2.6 3.5 0.00 0.00 0.00 58 1007.0
20260507080946 94 299 0.9 1.7 0.00 0.00 0.00 56 1007.0
20260507080446 93 186 0.0 0.9 0.00 0.00 0.00 56 1007.0
20260507075946 93 264 1.7 2.6 0.00 0.00 0.00 56 1007.0
20260507075447 92 219 0.9 1.7 0.00 0.00 0.00 58 1007.0
20260507074946 93 22 2.6 2.6 0.00 0.00 0.00 58 1007.0
20260507074447 93 296 0.0 0.9 0.00 0.00 0.00 58 1007.0
20260507073949 92 67 0.9 0.9 0.00 0.00 0.00 58 1007.0
20260507073447 91 349 1.7 2.6 0.00 0.00 0.00 59 1008.0
20260507072947 92 217 0.0 0.0 0.00 0.00 0.00 58 1008.0
20260507072446 91 292 0.9 0.9 0.00 0.00 0.00 61 1008.0
20260507071947 91 264 0.9 0.9 0.00 0.00 0.00 60 1008.0
20260507071446 92 277 1.7 1.7 0.00 0.00 0.00 59 1008.0
20260507070946 91 328 2.6 2.6 0.00 0.00 0.00 60 1008.0
20260507070447 92 263 0.9 1.7 0.00 0.00 0.00 59 1008.0
20260507065946 92 20 0.0 0.9 0.00 0.00 0.00 59 1008.0
20260507065447 93 351 0.9 0.9 0.00 0.00 0.00 58 1009.0
20260507064946 93 312 3.5 3.5 0.00 0.00 0.00 59 1009.0
20260507064446 91 311 0.9 1.7 0.00 0.00 0.00 60 1009.0
20260507063946 91 358 3.5 5.2 0.00 0.00 0.00 62 1009.0
20260507063446 92 204 0.9 0.9 0.00 0.00 0.00 58 1009.0
20260507062946 92 265 1.7 1.7 0.00 0.00 0.00 61 1009.0
20260507062447 91 239 0.9 0.9 0.00 0.00 0.00 62 1009.0
20260507061946 90 268 0.0 0.9 0.00 0.00 0.00 64 1009.0
20260507061447 89 8 2.6 2.6 0.00 0.00 0.00 64 1009.0
20260507060947 89 251 2.6 2.6 0.00 0.00 0.00 66 1009.0
20260507060447 90 198 1.7 2.6 0.00 0.00 0.00 66 1010.0
20260507055947 90 244 0.9 0.9 0.00 0.00 0.00 65 1010.0
20260507055447 90 235 1.7 2.6 0.00 0.00 0.00 66 1010.0
20260507054946 89 321 0.9 0.9 0.00 0.00 0.00 68 1010.0
20260507054447 89 294 1.7 2.6 0.00 0.00 0.00 66 1010.0
20260507053946 90 227 0.9 0.9 0.00 0.00 0.00 66 1010.0
20260507053447 91 267 1.7 1.7 0.00 0.00 0.00 65 1010.0
20260507052946 89 231 0.9 0.9 0.00 0.00 0.00 66 1010.0
20260507052446 90 222 1.7 1.7 0.00 0.00 0.00 66 1010.0
20260507051948 89 231 0.9 0.9 0.00 0.00 0.00 66 1010.0
20260507051447 89 207 0.0 1.7 0.00 0.00 0.00 67 1010.0
20260507050947 87 121 0.9 0.9 0.00 0.00 0.00 71 1010.0
20260507050446 88 194 3.5 3.5 0.00 0.00 0.00 69 1010.0
20260507045946 86 27 0.0 0.9 0.00 0.00 0.00 72 1010.0
20260507045447 87 324 1.7 1.7 0.00 0.00 0.00 72 1010.0
20260507044946 89 271 0.0 0.0 0.00 0.00 0.00 71 1010.0
20260507044447 88 247 0.0 0.9 0.00 0.00 0.00 71 1010.0
20260507043946 87 246 0.9 0.9 0.00 0.00 0.00 71 1010.0
20260507043447 86 247 0.0 0.0 0.00 0.00 0.00 73 1011.0
20260507042946 86 242 1.7 1.7 0.00 0.00 0.00 73 1011.0
20260507042447 85 128 0.9 0.9 0.00 0.00 0.00 75 1011.0
20260507041946 86 139 1.7 2.6 0.00 0.00 0.00 74 1011.0
20260507041447 86 214 0.0 0.9 0.00 0.00 0.00 75 1011.0
20260507040947 86 125 2.6 2.6 0.00 0.00 0.00 74 1011.0
20260507040446 84 84 0.9 0.9 0.00 0.00 0.00 75 1011.0
20260507035946 86 89 0.0 0.9 0.00 0.00 0.00 73 1011.0
20260507035447 86 49 0.9 1.7 0.00 0.00 0.00 73 1011.0
20260507034948 85 337 2.6 2.6 0.00 0.00 0.00 76 1011.0
20260507034446 85 295 0.9 0.9 0.00 0.00 0.00 76 1011.0
20260507033947 85 339 0.0 0.9 0.00 0.00 0.00 77 1011.0
20260507033446 84 338 0.9 1.7 0.00 0.00 0.00 78 1011.0
20260507032946 84 336 1.7 2.6 0.00 0.00 0.00 79 1011.0
20260507032446 84 78 0.0 0.9 0.00 0.00 0.00 77 1011.0
20260507031946 84 36 0.9 0.9 0.00 0.00 0.00 78 1011.0
20260507031446 84 42 0.9 1.7 0.00 0.00 0.00 78 1011.0
20260507030946 84 0 1.7 1.7 0.00 0.00 0.00 79 1010.0
20260507030448 84 52 0.0 0.9 0.00 0.00 0.00 78 1010.0
20260507025947 84 337 0.0 0.0 0.00 0.00 0.00 79 1010.0
20260507025447 83 337 0.0 0.0 0.00 0.00 0.00 79 1011.0
20260507024947 83 337 0.9 1.7 0.00 0.00 0.00 81 1010.0
20260507024447 83 337 0.0 0.0 0.00 0.00 0.00 82 1010.0
20260507023946 82 16 0.0 0.0 0.00 0.00 0.00 83 1010.0
20260507023447 82 359 0.0 0.9 0.00 0.00 0.00 84 1010.0
20260507022947 82 5 0.0 0.0 0.00 0.00 0.00 85 1010.0
20260507022447 82 7 0.0 0.0 0.00 0.00 0.00 85 1010.0
20260507021947 81 8 0.0 0.0 0.00 0.00 0.00 85 1010.0
20260507021446 81 10 0.9 0.9 0.00 0.00 0.00 86 1010.0
20260507020946 81 337 1.7 1.7 0.00 0.00 0.00 86 1010.0
20260507020447 80 24 1.7 1.7 0.00 0.00 0.00 88 1010.0
20260507015948 80 21 1.7 2.6 0.00 0.00 0.00 88 1010.0
20260507015446 80 16 1.7 1.7 0.00 0.00 0.00 89 1010.0
20260507014946 80 334 0.9 1.7 0.00 0.00 0.00 89 1010.0
20260507014446 80 330 1.7 1.7 0.00 0.00 0.00 88 1010.0
20260507013946 80 323 0.9 1.7 0.00 0.00 0.00 89 1010.0
20260507013447 79 323 0.0 0.0 0.00 0.00 0.00 89 1010.0
20260507012956 79 323 0.9 0.9 0.00 0.00 0.00 90 1010.0
20260507012446 79 323 0.0 0.0 0.00 0.00 0.00 90 1009.0
20260507011947 78 323 0.0 0.0 0.00 0.00 0.00 92 1009.0
20260507011447 78 323 0.0 0.0 0.00 0.00 0.00 92 1009.0
20260507010446 78 323 0.0 0.9 0.00 0.00 0.00 92 1009.0
20260507005946 78 323 0.0 0.0 0.00 0.00 0.00 92 1009.0
20260507005446 78 323 0.0 0.0 0.00 0.00 0.00 93 1009.0
20260507004947 77 322 0.0 0.0 0.00 0.00 0.00 93 1009.0
20260507004446 77 322 0.0 0.0 0.00 0.00 0.00 93 1009.0
20260507003947 77 322 0.0 0.0 0.00 0.00 0.00 94 1009.0
20260507003447 77 321 0.0 0.0 0.00 0.00 0.00 94 1009.0
20260507002948 77 321 0.0 0.0 0.00 0.00 0.00 94 1009.0
20260507002446 77 321 0.0 0.0 0.00 0.00 0.00 94 1009.0
20260507001946 77 321 0.9 0.9 0.00 0.00 0.00 94 1009.0
20260507001446 77 322 0.0 0.9 0.00 0.00 0.00 94 1009.0
20260507000946 77 322 0.0 0.0 0.00 0.00 0.00 94 1009.0
20260507000446 77 322 0.9 0.9 0.00 0.00 0.00 95 1008.0
20260506235946 77 322 0.0 0.9 0.00 0.00 0.00 95 1009.0
20260506235446 77 276 1.7 1.7 0.00 0.00 0.00 95 1008.0
20260506234947 77 252 0.9 0.9 0.00 0.00 0.00 95 1008.0
20260506234453 77 231 0.0 0.0 0.00 0.00 0.00 95 1008.0
20260506233946 77 231 0.0 0.9 0.00 0.00 0.00 95 1008.0